Location: Unspecified
(54.1780°N, 0.0000°E)
Time: 23:33:18
(UTC+00:00)

Explorer 7 - Pass Details

Date: 24 June 2019
Orbit: 485 x 680 km, 50.3° (Epoch: 13 October)

Event Time Altitude Azimuth Distance (km) Brightness Sun altitude
Rises 07:10:15 0° 186° (S) 2,723 10.3 28.6°
Reaches altitude 10° 07:14:24 10° 146° (SE) 1,896 10.1 29.2°
Maximum altitude 07:15:12 10° 135° (SE) 1,880 10.3 29.3°
Drops below altitude 10° 07:16:00 10° 124° (SE) 1,922 10.6 29.5°
Sets 07:20:23 0° 85° (E) 2,895 11.7 30.1°
